STARLINK-31810, 59799

Orbit data source: Space-Track

STARLINK-31810, 59799 is a payload satellite owned by SpaceX/Seattle (US) in LEO that was launched on Sat, 18 May 2024 UTC via an FALCON 9 launch vehicle from the Air Force Eastern Test Range (AFETR). Payload-class satellites include a variety of spacecraft equipped with specific instruments for various scientific and technological missions. These include communications satellites like Starlink; space stations such as the ISS; scientific satellites like the Hubble; Earth observation satellites from companies like Planet Labs, Umbra, and HawkEye 360; GPS; miniature CubeSats for education and research; and military/defense satellites.

Loading next visibility...
Identifier
59799, 2024-093T
Orbit
LEO
Country
Flag of USUS
Related business
Manufacturer
SpaceX/Seattle
Mission
Operational Commercial Communications
Bus & Motor
STARLINK V2M, Unknown motor
Mass
730 kg wet, ~700 kg dry
Launch date (UTC)
2024-05-18 (2 years ago)
Launch vehicle
FALCON 9
Launch site
Air Force Eastern Test Range (AFETR)
Object type
Payload
Rocket body
Debris
Shape & HBR
Box + 2 Pan, 17.7 m
Radar Cross Section
33.884 m², Large (>1 m²)

Expand to show TLE details & history
Last TLE update: 9 hours ago

TLE from 9 hours ago
0 STARLINK-31810
1 59799U 24093T   26073.59653323  .00001997  00000-0  82056-4 0  9992
2 59799  42.9967 181.3695 0001367 297.4247  62.6466 15.27585808103444
Epoch: 2026-03-14T14:19Z
TLE epoch observation values (Epoch: 2026-03-14T14:19:00.471Z)
Latitude
0.00004°
Longitude
154.40214°
Altitude
482.376 km
Speed
7.626 km/s
True Right ascension
12h 05m 28s
True Declination
0° 00' 00"
Sunlit
Object was in full shadow at epoch
Visualization orbit readout
Latitude
Unknown
Longitude
Unknown
Altitude
Unknown
Speed
Unknown
Apparent Right ascension
Unknown
Apparent Declination
Unknown
Sunlit
N/A
Visualization observer readout
Local Sidereal Time
03:53:50
Azimuth
Unknown
Elevation
Unknown
Doppler factor
Unknown
Orbital elements
Apogee altitude
485.916 km
Perigee altitude
484.039 km
Semi-major axis
6,863.114 km
Eccentricity
0.00014
Inclination
42.9967°
RAAN
181.3695°
Arg. of periapsis
297.4247°
True anomaly
62.66051°
Mean anomaly
62.6466°
Eccentric anomaly
62.65356°
Mean motion
3.81734 °/min
Orbital period
94.31 mins
BSTAR
0.000082056
Loading maneuver chart data...
Computing Atmospheric mass density...
Loading historical data...
Loading historical data...
Loading historical data...
Loading historical data...
Loading historical data...
Loading historical data...
Loading historical data...

Documentation

Showing up to 5 results
|